[[{"header":{"parameterUnit":"m.s-1","parameterCategory":1,"la1":30.2991,"la2":30.254,"lo1":-89.0895,"lo2":-89.0444,"dy":0.0017,"dx":0.0017,"nx":28,"ny":28,"refTime":"2025-04-22T03:00:00:Z","depth":0,"parameterNumber":2,"parameterNumberName":"U-component_of_WINDS"},"data":[0,0,0,0,0,0,0,0,0,0,0,0,0,0,0,0,0,0,0,0,0,0,0,0,0,0,0,0,0,0,0,0,0,0,0,0,0,0,0,0,0,0,0,0,0,0,0,0,0,0,0,0,0,0,0,0,0,0,-2.1802,-2.1802,0,-2.181,-2.181,-2.181,-2.1772,-2.177,-2.1769,-2.1768,-2.1779,-2.178,-2.1781,0,0,0,0,0,0,0,0,0,0,0,0,0,-2.1758,-2.1759,-2.1802,-2.1802,-2.1802,-2.181,-2.181,-2.181,-2.1772,-2.177,-2.1769,-2.1768,-2.1778,-2.178,-2.1781,0,0,0,0,0,0,0,0,0,0,0,0,0,-2.1773,-2.1759,-2.1802,-2.1784,-2.1782,-2.181,-2.181,-2.181,-2.1772,-2.177,-2.1769,-2.1767,-2.1778,-2.178,-2.1782,-2.1827,0,0,-2.1788,-2.1788,0,0,0,0,0,0,0,0,-2.1772,-2.1774,-2.1787,-2.1785,-2.1784,-2.1788,-2.1798,-2.1816,-2.1773,-2.1776,-2.1768,-2.1766,-2.1783,-2.1785,-2.179,-2.1828,-2.1828,-2.1788,-2.1789,-2.179,-2.179,0,0,0,0,0,0,0,-2.1771,-2.1774,-2.1805,-2.1787,-2.1785,-2.1777,-2.1777,-2.1801,-2.1789,-2.1776,-2.1773,-2.1774,-2.1782,-2.1788,-2.179,-2.1828,-2.1788,-2.1789,-2.1791,-2.1791,-2.1906,-2.1907,0,0,0,0,0,0,-2.1772,-2.1773,-2.1805,-2.1805,-2.1773,-2.1779,-2.1779,-2.1788,-2.1789,-2.1787,-2.1776,-2.1772,-2.1786,-2.1788,-2.179,-2.1844,-2.179,-2.1792,-2.1793,-2.1904,-2.1906,-2.1908,0,0,0,0,0,0,-2.1771,-2.1775,-2.1805,-2.1789,-2.1792,-2.1781,-2.1792,-2.1789,-2.1795,-2.1789,-2.1787,-2.1784,-2.1784,-2.1787,-2.1818,-2.1844,-2.1793,-2.1794,-2.1902,-2.1904,-2.1907,-2.1951,0,0,0,0,0,0,-2.177,-2.1775,-2.1791,-2.1789,-2.1793,-2.1832,-2.1794,-2.1791,-2.1798,-2.1794,-2.1796,-2.1794,-2.1783,-2.1816,-2.182,-2.1845,-2.1796,-2.1899,-2.1903,-2.1906,-2.1948,-2.1955,-2.1962,0,0,0,0,0,-2.1768,-2.1804,-2.1792,-2.1796,-2.1812,-2.1833,-2.1835,-2.1821,-2.18,-2.1817,-2.1814,-2.1794,-2.1841,-2.1819,-2.1824,-2.185,-2.1898,-2.1902,-2.1906,-2.1944,-2.1954,-2.1962,0,0,0,0,0,0,-2.1809,-2.1803,-2.179,-2.1825,-2.183,-2.1827,-2.1847,-2.1832,-2.1843,-2.1838,-2.1821,-2.1822,-2.1856,-2.1857,-2.1833,-2.1895,-2.1866,-2.1871,-2.1893,-2.1902,-2.1909,-2.1908,-2.1797,0,0,0,0,0,-2.1822,-2.1838,-2.1833,-2.1864,-2.1867,-2.1857,-2.1866,-2.1855,-2.1859,-2.1861,-2.1859,-2.1865,-2.1881,-2.1892,-2.1906,-2.1948,-2.1948,-2.1969,-2.1976,-2.1982,-2.1986,-2.2009,-2.2019,-2.1922,-2.1922,-2.1922,0,0,-2.1849,-2.1848,-2.1859,-2.1873,-2.1875,-2.1893,-2.1859,-2.188,-2.1893,-2.1864,-2.1893,-2.1893,-2.1899,-2.1935,-2.1952,-2.1937,-2.2014,-2.1987,-2.1992,-2.1993,-2.2015,-2.2024,-2.2032,-2.1924,-2.1924,-2.1924,0,0,-2.1907,-2.1908,-2.1935,-2.1938,-2.1942,-2.1935,-2.1942,-2.1941,-2.194,-2.1969,-2.1947,-2.1965,-2.1992,-2.1997,-2.2004,-2.2067,-2.2049,-2.2072,-2.2109,-2.2132,-2.2139,-2.2146,-2.2168,-2.2177,-2.2077,-2.2077,-2.2077,0,-2.194,-2.1966,-2.1951,-2.1973,-2.198,-2.1955,-2.1982,-2.1987,-2.1996,-2.2002,-2.1985,-2.202,-2.2022,-2.206,-2.2076,-2.2082,-2.2089,-2.2071,-2.2139,-2.2146,-2.2152,-2.2173,-2.2181,-2.208,-2.2079,-2.2079,-2.2079,0,-2.2007,-2.2025,-2.2047,-2.2055,-2.2065,-2.209,-2.208,-2.2092,-2.2081,-2.2076,-2.2107,-2.2109,-2.2124,-2.2132,-2.2122,-2.217,-2.216,-2.2142,-2.2111,-2.2164,-2.2183,-2.2192,-2.2083,-2.2082,-2.2082,-2.2081,0,0,-2.2088,-2.209,-2.2098,-2.2102,-2.2105,-2.212,-2.2145,-2.2158,-2.2169,-2.2177,-2.2198,-2.2223,-2.2207,-2.2214,-2.2204,-2.2224,-2.2274,-2.2204,-2.2203,-2.2216,-2.2328,-2.234,-2.235,-2.2264,-2.2266,-2.2267,-2.2327,0,-2.2145,-2.2186,-2.2174,-2.2215,-2.2233,-2.221,-2.2232,-2.2238,-2.2235,-2.2251,-2.2248,-2.2266,-2.2243,-2.2247,-2.2266,-2.2264,-2.2296,-2.226,-2.2283,-2.2284,-2.2281,-2.236,-2.2374,-2.243,-2.2335,-2.2336,-2.2337,0,-2.2216,-2.2226,-2.2269,-2.2271,-2.2278,-2.2297,-2.231,-2.2325,-2.2331,-2.2328,-2.2337,-2.2324,-2.235,-2.2321,-2.2357,-2.2333,-2.2342,-2.2343,-2.2345,-2.2345,-2.2313,-2.2362,-2.2448,-2.2456,-2.2349,-2.2348,-2.2347,0,-2.2271,-2.2295,-2.2324,-2.2329,-2.2332,-2.2346,-2.2348,-2.2353,-2.2363,-2.2374,-2.2381,-2.2396,-2.2404,-2.2416,-2.2408,-2.2388,-2.2446,-2.2416,-2.2444,-2.2445,-2.2456,-2.2455,-2.2544,-2.2464,-2.2464,-2.2464,-2.2464,0,-2.2334,-2.2361,-2.2349,-2.2367,-2.2397,-2.2384,-2.2415,-2.2415,-2.242,-2.2438,-2.2421,-2.2439,-2.2428,-2.2445,-2.244,-2.2471,-2.2475,-2.2473,-2.2471,-2.2474,-2.2474,-2.2479,-2.2474,-2.2466,-2.2466,-2.2465,-2.2465,0,-2.24,-2.2392,-2.2422,-2.2423,-2.2424,-2.2447,-2.2448,-2.2465,-2.2462,-2.2486,-2.2491,-2.2486,-2.2506,-2.25,-2.2521,-2.2518,-2.2557,-2.255,-2.2554,-2.2552,-2.258,-2.2577,-2.2674,-2.2686,-2.26,-2.2601,-2.2601,0,-2.244,-2.246,-2.2463,-2.2474,-2.2477,-2.2495,-2.2504,-2.2494,-2.2505,-2.2515,-2.2531,-2.255,-2.2563,-2.2597,-2.2596,-2.2613,-2.2606,-2.2639,-2.2608,-2.2611,-2.2606,-2.2604,-2.2606,-2.2644,-2.2645,-2.2646,-2.2647,0,-2.2513,-2.2508,-2.2522,-2.2536,-2.2548,-2.2558,-2.2567,-2.2577,-2.2567,-2.2581,-2.2601,-2.2611,-2.2634,-2.2652,-2.2668,-2.2672,-2.2658,-2.2657,-2.2664,-2.2666,-2.2668,-2.2667,-2.2569,-2.2654,-2.2653,-2.2653,-2.2652,-2.2652,-2.2566,-2.2583,-2.2588,-2.2605,-2.2611,-2.262,-2.2636,-2.2635,-2.2651,-2.2668,-2.2661,-2.2684,-2.2692,-2.2712,-2.2718,-2.2737,-2.2724,-2.2735,-2.2737,-2.274,-2.2743,-2.2666,-2.274,-2.2739,-2.2739,-2.2739,-2.2739,0,-2.2637,-2.264,-2.2655,-2.2668,-2.2682,-2.2668,-2.2677,-2.269,-2.271,-2.2718,-2.2732,-2.2756,-2.2774,-2.2776,-2.2794,-2.2809,-2.2803,-2.2814,-2.2812,-2.2813,-2.2753,-2.2745,-2.2818,-2.2818,-2.2818,-2.2818,-2.2818,-2.2818,-2.2676,-2.2704,-2.2701,-2.2733,-2.2735,-2.2757,-2.2763,-2.2772,-2.2779,-2.2805,-2.2821,-2.2821,-2.2828,-2.2846,-2.2863,-2.2863,-2.287,-2.2883,-2.2881,-2.2825,-2.2817,-2.2809,-2.2801,-2.2885,-2.2885,-2.2939,-2.2939,-2.294]},{"header":{"parameterUnit":"m.s-1","parameterCategory":1,"la1":30.2991,"la2":30.254,"lo1":-89.0895,"lo2":-89.0444,"dy":0.0017,"dx":0.0017,"nx":28,"ny":28,"refTime":"2025-04-22T03:00:00:Z","depth":0,"parameterNumber":3,"parameterNumberName":"V-component_of_WINDS"},"data":[0,0,0,0,0,0,0,0,0,0,0,0,0,0,0,0,0,0,0,0,0,0,0,0,0,0,0,0,0,0,0,0,0,0,0,0,0,0,0,0,0,0,0,0,0,0,0,0,0,0,0,0,0,0,0,0,0,0,3.3289,3.3289,0,3.3305,3.3305,3.3305,3.3366,3.3367,3.3369,3.337,3.3381,3.338,3.3379,0,0,0,0,0,0,0,0,0,0,0,0,0,3.331,3.3309,3.3289,3.3289,3.329,3.3305,3.3305,3.3305,3.3366,3.3367,3.3369,3.3371,3.3381,3.338,3.3379,0,0,0,0,0,0,0,0,0,0,0,0,0,3.331,3.3309,3.3289,3.3322,3.3325,3.3305,3.3305,3.3305,3.3365,3.3367,3.337,3.3372,3.3382,3.338,3.3379,3.3327,0,0,3.3374,3.3373,0,0,0,0,0,0,0,0,3.331,3.331,3.3317,3.332,3.3323,3.3336,3.3316,3.3312,3.3365,3.335,3.337,3.3373,3.3364,3.3364,3.3362,3.3327,3.3328,3.3374,3.3373,3.3372,3.3372,0,0,0,0,0,0,0,3.331,3.3309,3.3295,3.3317,3.3321,3.3335,3.3337,3.3316,3.3344,3.3351,3.3356,3.3357,3.3366,3.3363,3.3363,3.3328,3.3374,3.3373,3.3372,3.3371,3.3254,3.3252,0,0,0,0,0,0,3.3306,3.3309,3.3295,3.3296,3.3322,3.3333,3.3336,3.3329,3.3345,3.335,3.3355,3.336,3.3365,3.3364,3.3363,3.3305,3.3372,3.3371,3.337,3.3256,3.3253,3.3251,0,0,0,0,0,0,3.3306,3.3304,3.3294,3.3304,3.3303,3.333,3.3323,3.3329,3.3326,3.3348,3.3353,3.3347,3.3367,3.3365,3.3336,3.3306,3.337,3.3369,3.3259,3.3255,3.3252,3.3187,0,0,0,0,0,0,3.3307,3.3304,3.3285,3.3303,3.3303,3.3267,3.3321,3.3327,3.3324,3.333,3.3342,3.3346,3.3368,3.3338,3.3335,3.3305,3.3368,3.3261,3.3257,3.3253,3.3192,3.3182,3.3173,0,0,0,0,0,3.3307,3.3264,3.3283,3.3281,3.328,3.3265,3.3265,3.3293,3.3321,3.3302,3.3317,3.3346,3.331,3.3335,3.3331,3.3301,3.3263,3.3258,3.3253,3.3196,3.3184,3.3174,0,0,0,0,0,0,3.324,3.3267,3.3289,3.3251,3.3256,3.3276,3.3252,3.3279,3.3274,3.328,3.3313,3.3316,3.3282,3.3288,3.3315,3.3253,3.3292,3.3286,3.325,3.3238,3.3229,3.3228,3.3366,0,0,0,0,0,3.3221,3.3208,3.3232,3.3196,3.3198,3.3225,3.322,3.3241,3.3247,3.3248,3.3261,3.3264,3.3254,3.3246,3.3238,3.3194,3.3198,3.3171,3.3162,3.3154,3.3149,3.3127,3.3116,3.3235,3.3235,3.3235,0,0,3.3181,3.3194,3.3184,3.3183,3.319,3.3176,3.3226,3.3208,3.3198,3.3245,3.3219,3.3229,3.3235,3.3198,3.3182,3.3203,3.3117,3.3148,3.3142,3.314,3.3121,3.311,3.31,3.3231,3.3232,3.3233,0,0,3.3101,3.311,3.3082,3.3088,3.3098,3.3116,3.311,3.3127,3.3135,3.311,3.3146,3.3134,3.3116,3.3119,3.3118,3.3043,3.307,3.3039,3.2991,3.297,3.296,3.2952,3.2926,3.2917,3.3034,3.3034,3.3034,0,3.3049,3.3031,3.3063,3.3045,3.3044,3.3089,3.3061,3.3064,3.307,3.3068,3.3091,3.3071,3.3078,3.3044,3.3026,3.3024,3.3017,3.3038,3.2959,3.2951,3.2944,3.292,3.291,3.303,3.303,3.3031,3.3031,0,3.2968,3.2954,3.293,3.2938,3.2934,3.291,3.2939,3.2932,3.2954,3.297,3.2945,3.2955,3.2951,3.2945,3.2965,3.2914,3.2926,3.2953,3.2993,3.2929,3.2907,3.2897,3.3025,3.3026,3.3027,3.3028,0,0,3.2844,3.2872,3.2863,3.2868,3.2883,3.2873,3.2852,3.285,3.2843,3.2846,3.2829,3.2814,3.2841,3.284,3.2861,3.2843,3.2784,3.2873,3.2874,3.2857,3.273,3.271,3.2699,3.2803,3.2801,3.28,3.273,0,3.2769,3.2736,3.2766,3.2727,3.2715,3.2759,3.2741,3.2748,3.2763,3.2755,3.2771,3.276,3.2795,3.2796,3.2779,3.2795,3.276,3.28,3.2787,3.2786,3.2785,3.2687,3.2665,3.2599,3.2722,3.272,3.2719,0,3.2676,3.2678,3.2638,3.2659,3.2655,3.2638,3.264,3.2632,3.2642,3.2654,3.2655,3.2682,3.2663,3.2702,3.2676,3.2704,3.27,3.2707,3.2706,3.2705,3.2749,3.2685,3.2578,3.2568,3.2706,3.2707,3.2708,0,3.2591,3.2583,3.2559,3.2562,3.2585,3.2573,3.2581,3.2593,3.2591,3.2592,3.2591,3.2589,3.2588,3.2586,3.2612,3.2639,3.2583,3.2625,3.2593,3.2592,3.2579,3.2579,3.2471,3.2576,3.2576,3.2576,3.2576,0,3.2504,3.2478,3.2522,3.2507,3.248,3.2515,3.2487,3.25,3.2511,3.2499,3.2536,3.2524,3.2559,3.2551,3.2571,3.2547,3.2546,3.2556,3.2561,3.2553,3.2551,3.2551,3.2556,3.2574,3.2574,3.2575,3.2575,0,3.2404,3.2433,3.241,3.2434,3.244,3.2419,3.244,3.2427,3.2446,3.2431,3.2429,3.2457,3.245,3.2476,3.2472,3.2486,3.2451,3.2464,3.2449,3.2453,3.242,3.2423,3.2307,3.2294,3.2407,3.2406,3.2405,0,3.2347,3.2329,3.2353,3.2349,3.2356,3.2349,3.2348,3.2382,3.2379,3.239,3.2376,3.2372,3.2371,3.2356,3.2376,3.2374,3.2387,3.2347,3.2387,3.2379,3.2388,3.2389,3.2388,3.2338,3.2337,3.2336,3.2335,0,3.2243,3.2259,3.2256,3.2259,3.2258,3.2261,3.2267,3.2261,3.2298,3.2293,3.2287,3.2286,3.2284,3.2279,3.2282,3.229,3.2318,3.2323,3.2315,3.2306,3.2298,3.2303,3.2427,3.2325,3.2326,3.2326,3.2327,3.2327,3.2164,3.215,3.2166,3.2163,3.2171,3.2177,3.2167,3.2185,3.2181,3.2183,3.2204,3.2194,3.2206,3.2213,3.2218,3.2211,3.223,3.2219,3.2216,3.2213,3.2208,3.2299,3.2211,3.2212,3.2212,3.2212,3.2213,0,3.2062,3.2075,3.2072,3.2081,3.2078,3.2108,3.2116,3.2112,3.2104,3.2113,3.2112,3.2106,3.2103,3.2124,3.2123,3.2113,3.2127,3.2112,3.2113,3.2115,3.2191,3.2198,3.2102,3.2102,3.2102,3.2102,3.2102,3.2102,3.201,3.1989,3.2007,3.1992,3.2005,3.1997,3.2,3.2005,3.2013,3.2006,3.2004,3.2018,3.2032,3.2034,3.2032,3.2039,3.2037,3.2018,3.2029,3.2099,3.2109,3.212,3.2127,3.2017,3.2017,3.1954,3.1953,3.1953]}]]